[[{"header":{"parameterUnit":"m.s-1","parameterCategory":1,"la1":30.2992,"la2":30.254,"lo1":-89.0895,"lo2":-89.0443,"dy":0.0025,"dx":0.0025,"nx":19,"ny":19,"refTime":"2026-04-03T03:00:00:Z","depth":0,"parameterNumber":2,"parameterNumberName":"U-component_of_WINDS"},"data":[0,0,0,-5.452,-5.4522,-5.4613,-5.4613,-5.4746,-5.4747,0,0,0,0,0,0,0,0,0,0,0,-5.4503,-5.4504,-5.452,-5.4522,-5.4613,-5.4613,-5.4746,-5.4747,0,0,0,0,0,0,0,0,0,0,0,-5.4502,-5.4504,-5.4505,-5.4523,-5.4613,-5.4613,-5.4745,-5.4671,0,0,0,0,0,0,0,0,0,0,-5.458,-5.4573,-5.4503,-5.4505,-5.4523,-5.4613,-5.4613,-5.4667,-5.4676,-5.4712,0,-5.4746,0,-5.4749,-5.4757,-5.4758,0,0,0,-5.4515,-5.4566,-5.4582,-5.4505,-5.4524,-5.4613,-5.457,-5.4672,-5.4681,-5.4723,-5.4748,-5.4753,-5.4751,-5.4758,-5.4759,-5.4993,-5.4995,0,0,-5.451,-5.4524,-5.4576,-5.4589,-5.4576,-5.4567,-5.4573,-5.4677,-5.4705,-5.4749,-5.4755,-5.4754,-5.4759,-5.476,-5.4992,-5.4994,0,0,0,-5.45,-5.4521,-5.4534,-5.4584,-5.4599,-5.457,-5.4577,-5.4701,-5.4704,-5.4757,-5.4755,-5.476,-5.4762,-5.499,-5.4993,-5.5076,0,0,0,-5.4497,-5.4515,-5.4532,-5.4542,-5.4598,-5.4651,-5.4598,-5.4696,-5.4708,-5.4755,-5.476,-5.4763,-5.4989,-5.4991,-5.5071,-5.5113,0,0,0,-5.4493,-5.4515,-5.4531,-5.4542,-5.4582,-5.4649,-5.4658,-5.4699,-5.4707,-5.4758,-5.4764,-5.4988,-5.4991,-5.5065,-5.5104,-5.5178,0,0,0,-5.4493,-5.4604,-5.4533,-5.4657,-5.4581,-5.4701,-5.4657,-5.4745,-5.4799,-5.4761,-5.4989,-5.4992,-5.5064,-5.5099,-5.5172,-5.524,-5.527,0,0,-5.4641,-5.4622,-5.4694,-5.4633,-5.4769,-5.4686,-5.4835,-5.487,-5.4862,-5.495,-5.4956,-5.5072,-5.5103,-5.5176,-5.544,-5.5464,0,0,0,-5.4745,-5.4797,-5.483,-5.4882,-5.4913,-5.4943,-5.4955,-5.4968,-5.5043,-5.491,-5.512,-5.5138,-5.518,-5.5212,-5.5232,-5.5267,-5.5008,-5.5008,-5.5008,-5.4971,-5.4957,-5.5075,-5.5072,-5.5124,-5.5136,-5.5176,-5.5197,-5.5166,-5.5216,-5.5241,-5.5402,-5.544,-5.5455,-5.5492,-5.5278,-5.5278,-5.5279,-5.5279,-5.5184,-5.5254,-5.5214,-5.5313,-5.5298,-5.5381,-5.5399,-5.5375,-5.545,-5.5382,-5.5418,-5.5342,-5.5482,-5.5514,-5.5285,-5.5284,-5.5283,-5.5283,-5.5282,-5.5328,-5.5359,-5.5375,-5.5451,-5.5511,-5.5506,-5.5581,-5.5564,-5.5549,-5.5586,-5.561,-5.5608,-5.5603,-5.5599,-5.56,-5.56,-5.5601,-5.5601,-5.5601,-5.5469,-5.5485,-5.555,-5.5595,-5.5628,-5.5669,-5.5686,-5.5717,-5.5748,-5.573,-5.573,-5.5694,-5.55,-5.545,-5.561,-5.5608,-5.5607,-5.5607,-5.5606,-5.5685,-5.5635,-5.5735,-5.5768,-5.582,-5.5881,-5.5862,-5.5928,-5.5952,-5.599,-5.5949,-5.5809,-5.5788,-5.5771,-5.5729,-5.5952,-5.5952,-5.5952,-5.5952,-5.5804,-5.5794,-5.5893,-5.5947,-5.5998,-5.5992,-5.6106,-5.6123,-5.6131,-5.6145,-5.6112,-5.6056,-5.604,-5.6029,-5.6007,-5.5967,-5.6246,-5.6246,-5.6246,-5.5935,-5.593,-5.6029,-5.6037,-5.6078,-5.6114,-5.6221,-5.6286,-5.6285,-5.6258,-5.6156,-5.6143,-5.6054,-5.6026,-5.5991,-5.5958,-5.5885,0,0]},{"header":{"parameterUnit":"m.s-1","parameterCategory":1,"la1":30.2992,"la2":30.254,"lo1":-89.0895,"lo2":-89.0443,"dy":0.0025,"dx":0.0025,"nx":19,"ny":19,"refTime":"2026-04-03T03:00:00:Z","depth":0,"parameterNumber":3,"parameterNumberName":"V-component_of_WINDS"},"data":[0,0,0,2.9823,2.9824,2.989,2.989,2.9949,2.9949,0,0,0,0,0,0,0,0,0,0,0,2.9788,2.9788,2.9823,2.9824,2.989,2.989,2.9949,2.9949,0,0,0,0,0,0,0,0,0,0,0,2.9788,2.9788,2.9788,2.9824,2.989,2.989,2.9948,2.9908,0,0,0,0,0,0,0,0,0,0,2.9848,2.9802,2.9788,2.9788,2.9824,2.989,2.989,2.9906,2.991,2.9908,0,2.9903,0,2.9927,2.9951,2.9951,0,0,0,2.9834,2.9798,2.983,2.9788,2.9825,2.989,2.9863,2.9909,2.9913,2.9913,2.9904,2.9907,2.9928,2.9951,2.9952,2.9908,2.9908,0,0,2.9831,2.9791,2.9826,2.9832,2.9822,2.9861,2.9865,2.9912,2.9898,2.9904,2.9909,2.9929,2.9952,2.9952,2.9909,2.9908,0,0,0,2.9813,2.9788,2.982,2.9829,2.9843,2.9863,2.9867,2.9896,2.991,2.9909,2.9929,2.9952,2.9952,2.991,2.9909,2.9838,0,0,0,2.9812,2.9778,2.9817,2.9794,2.9842,2.9871,2.985,2.9907,2.9913,2.9929,2.9952,2.9953,2.9911,2.9909,2.9842,2.981,0,0,0,2.9789,2.9776,2.9781,2.9792,2.9819,2.9871,2.9888,2.9909,2.9925,2.9951,2.9953,2.9911,2.9909,2.9845,2.9816,2.9789,0,0,0,2.9753,2.9714,2.9779,2.9744,2.9818,2.9827,2.9888,2.9896,2.991,2.9952,2.9911,2.9909,2.9846,2.9819,2.9792,2.9759,2.9742,0,0,2.9682,2.9704,2.9687,2.9747,2.9734,2.982,2.9797,2.9846,2.9883,2.9897,2.9897,2.984,2.9816,2.9789,2.9658,2.9643,0,0,0,2.9651,2.9638,2.9643,2.9657,2.9695,2.9725,2.9782,2.9801,2.9816,2.9883,2.9824,2.9811,2.9797,2.9783,2.9771,2.9762,2.9901,2.9901,2.9901,2.9493,2.9546,2.9521,2.9582,2.9594,2.9655,2.967,2.9705,2.9752,2.9737,2.9741,2.9656,2.9638,2.9629,2.9619,2.9728,2.9728,2.9728,2.9728,2.9394,2.9385,2.9452,2.9453,2.9508,2.9508,2.9566,2.96,2.9608,2.9656,2.9646,2.9693,2.9612,2.9606,2.9723,2.9724,2.9724,2.9725,2.9725,2.9297,2.9302,2.9327,2.9354,2.9369,2.9432,2.9438,2.9487,2.9534,2.9524,2.9535,2.9537,2.9544,2.9526,2.9526,2.9526,2.9525,2.9525,2.9525,2.9185,2.9217,2.9216,2.9257,2.9274,2.9302,2.9365,2.9382,2.9414,2.9449,2.945,2.9499,2.9595,2.9618,2.9521,2.9521,2.9522,2.9522,2.9523,2.9065,2.9102,2.9101,2.9118,2.9171,2.9183,2.9248,2.928,2.9301,2.9303,2.9355,2.9418,2.9443,2.9453,2.9472,2.9343,2.9343,2.9343,2.9343,2.8983,2.9002,2.9015,2.9039,2.9069,2.9129,2.9127,2.9176,2.9232,2.9249,2.9275,2.9305,2.9313,2.9334,2.9346,2.9365,2.9212,2.9212,2.9212,2.8913,2.8938,2.8927,2.8985,2.9031,2.9069,2.9069,2.9094,2.9165,2.9208,2.9263,2.9269,2.9318,2.9332,2.9374,2.9392,2.9428,0,0]}]]